This demonstration page uses our WeatherBlox Daily Observations layout. Learn more.

36.17497, -115.13722

Hourly Observations for September 4, 2018

Temp ( °F °C ) Dew Point ( °F °C ) Humidity (%) Winds ( mph kmh ) Pressure ( in mb ) Visibility ( mi km ) Precip ( " mm )
12:53 am 00:53 Partly Cloudy 77 25 58 14.4 52 52 Calm 29.88 1012 10 16.09344 0.001 0.001
1:53 am 01:53 Clear 77 25 57 13.9 50 50 E 6 9 29.85 1011 10 16.09344 0 0
2:53 am 02:53 Clear 76 24.4 56 13.3 50 50 S 3 6 29.85 1011 10 16.09344 0 0
3:53 am 03:53 Clear 76 24.4 59 15 56 56 Calm 29.85 1011 10 16.09344 0 0
4:53 am 04:53 Clear 74 23.3 56 13.3 54 54 ENE 3 6 29.85 1011 10 16.09344 0 0
5:53 am 05:53 Clear 74 23.3 55 12.8 52 52 S 3 6 29.88 1012 10 16.09344 0 0
6:53 am 06:53 Sunny 74 23.3 56 13.3 54 54 Calm 29.91 1013 10 16.09344 0 0
7:53 am 07:53 Sunny 76 24.4 55 12.8 48 48 W 6 9 29.91 1013 10 16.09344 0 0
8:53 am 08:53 Sunny 80 26.7 53 11.7 39 39 Calm 29.94 1014 10 16.09344 0 0
9:53 am 09:53 Sunny 85 29.4 50 10 30 30 Calm 29.94 1014 10 16.09344 0 0
10:53 am 10:53 Sunny 87 30.6 50 10 28 28 ENE 5 7 29.94 1014 10 16.09344 0 0
11:53 am 11:53 Sunny 88 31.1 49 9.4 26 26 SE 6 9 29.91 1013 10 16.09344 0 0
12:53 pm 12:53 Sunny 90 32.2 48 8.9 24 24 Calm 29.88 1012 10 16.09344 0 0
1:53 pm 13:53 Sunny 93 33.9 45 7.2 19 19 E 6 9 29.85 1011 10 16.09344 0 0
2:53 pm 14:53 Sunny 92 33.3 46 7.8 21 21 N 6 9 29.83 1010 10 16.09344 0 0
3:53 pm 15:53 Sunny 93 33.9 45 7.2 19 19 N 5 7 29.83 1010 10 16.09344 0 0
4:53 pm 16:53 Sunny 92 33.3 45 7.2 20 20 Calm 29.8 1009 10 16.09344 0 0
5:53 pm 17:53 Sunny 92 33.3 45 7.2 20 20 Calm 29.8 1009 10 16.09344 0 0
6:53 pm 18:53 Sunny 92 33.3 45 7.2 20 20 SW 3 6 29.83 1010 10 16.09344 0 0
7:53 pm 19:53 Clear 90 32.2 45 7.2 21 21 ENE 6 9 29.83 1010 10 16.09344 0 0
8:53 pm 20:53 Mostly Clear 89 31.7 44 6.7 21 21 ENE 5 7 29.85 1011 10 16.09344 0 0
9:53 pm 21:53 Partly Cloudy 88 31.1 43 6.1 21 21 Calm 29.85 1011 10 16.09344 0 0
10:53 pm 22:53 Clear 86 30 46 7.8 25 25 Calm 29.85 1011 10 16.09344 0 0
11:53 pm 23:53 Clear 82 27.8 48 8.9 31 31 NNW 6 9 29.85 1011 10 16.09344 0 0

Powered by AerisWeather